Wind_Speed
2 1 1 1 2 2 2 2 3 4 5 6 8 11 15 19 19 18 14 14 12 8 6 5 5 2 1 6 10 8 7 7 4 1 1 1 0 1 1 2 6 9 11 10 4
1 1 1 1 1 2 2 2 3 3 4 5 6 8 11 15 19 19 18 17 13 10 8 6 7 2 1 6 11 8 6 4 4 2 2 2 1 2 2 4 5 11 11 11 2
1 1 1 1 1 2 2 3 3 4 4 5 6 7 8 9 12 20 22 19 15 14 12 10 10 2 1 5 8 8 5 6 4 3 6 4 2 3 1 3 4 7 11 11 1
3 2 2 2 2 3 3 3 4 4 4 5 6 7 8 9 6 15 22 21 18 16 13 10 10 3 1 2 9 6 7 7 6 5 4 6 6 4 4 5 5 10 9 7 3
4 3 3 3 3 3 4 4 4 5 5 6 7 7 9 10 12 9 16 19 19 18 14 11 10 5 3 4 6 6 6 7 6 6 5 5 8 7 8 8 4 6 7 3 5
5 4 4 3 4 4 5 6 6 6 6 7 7 8 9 10 10 9 13 15 17 18 16 14 12 10 6 4 4 7 4 6 7 8 7 6 7 8 5 6 2 3 5 4 7
6 5 5 5 5 5 5 7 8 8 8 8 8 9 9 12 11 11 10 13 18 20 19 18 16 10 8 6 7 6 5 6 5 7 8 11 6 6 5 4 2 1 1 5 4
7 6 6 5 5 5 5 7 8 9 10 9 10 10 11 10 11 14 13 11 18 22 24 23 19 14 12 11 8 5 5 2 6 6 7 9 6 7 5 2 2 3 3 8 5
8 8 7 7 6 6 5 7 8 9 10 12 12 11 13 13 14 16 15 14 17 23 27 24 20 14 13 10 8 6 6 5 4 7 5 8 6 11 6 3 7 4 6 8 8
9 9 8 8 7 7 5 5 7 9 11 12 13 10 12 16 17 16 16 16 16 22 25 25 19 16 15 12 12 5 6 5 6 7 10 10 11 8 8 5 7 9 11 9 9
9 9 8 8 7 6 5 4 5 8 10 14 13 20 10 17 19 19 17 15 16 20 22 23 21 23 16 15 14 10 11 11 10 10 13 12 15 10 8 9 10 9 11 15 13
11 10 9 8 7 5 5 3 5 7 8 12 17 13 16 17 22 23 19 15 18 18 19 17 25 18 16 17 14 13 13 12 10 8 14 16 16 9 8 7 9 10 10 11 18
12 12 10 9 7 6 4 4 3 5 5 7 12 16 15 15 16 20 18 15 15 16 19 19 8 20 18 17 17 17 17 15 14 14 15 12 13 6 7 7 7 9 12 14 21
13 12 11 9 7 5 4 3 2 4 4 4 6 13 17 17 15 19 18 13 11 15 13 18 18 13 18 23 19 18 15 17 16 12 12 6 16 9 10 8 7 9 9 9 20
14 13 10 7 7 6 6 5 3 7 5 5 7 8 14 18 8 17 17 17 12 11 15 11 10 18 19 14 17 21 17 15 14 14 14 16 11 13 7 12 10 11 11 10 12
14 13 9 6 6 6 6 6 5 3 3 5 5 5 13 22 9 10 17 16 14 13 15 17 12 8 15 19 20 14 13 12 13 14 19 18 14 11 2 5 7 8 8 13 13
13 11 8 6 6 5 6 7 2 7 5 5 5 6 13 19 12 11 20 21 14 15 15 13 17 17 12 9 11 15 12 14 13 14 15 6 10 18 16 16 14 12 12 11 13
11 10 8 5 5 5 7 7 8 4 5 8 7 8 12 16 15 12 15 20 21 15 5 11 13 17 16 20 16 17 18 19 10 11 12 5 7 9 10 17 15 14 9 10 10
11 9 8 6 5 6 9 9 4 6 6 6 5 10 14 15 12 16 16 20 19 19 12 8 8 7 9 13 18 18 19 20 24 20 16 22 21 17 12 12 9 10 9 8 12
11 9 7 7 5 7 10 12 7 12 9 8 9 9 13 16 16 16 14 15 20 19 18 8 11 10 8 10 13 23 14 17 21 16 16 16 13 13 9 7 6 7 7 8 13
10 9 9 7 6 9 10 11 12 13 14 8 9 8 10 13 18 17 14 11 16 16 22 20 16 11 11 16 14 11 21 21 18 15 11 11 13 6 8 8 11 9 9 11 14
10 4 9 9 8 11 10 11 15 9 14 12 15 10 10 12 15 18 18 12 16 12 13 17 14 19 22 17 15 15 18 23 24 23 22 18 22 16 11 10 12 12 11 10 10
9 10 12 11 7 11 13 10 13 9 9 8 10 12 12 12 13 16 15 18 15 16 12 14 13 19 20 17 19 19 21 21 22 23 26 20 19 8 14 13 11 13 14 12 10
10 3 9 13 17 13 9 10 10 13 13 16 13 12 12 15 16 11 17 15 19 16 19 15 18 18 21 12 3 7 10 16 22 29 25 27 27 21 18 15 12 11 12 12 10
10 8 9 6 8 16 17 13 8 9 12 13 10 10 10 13 15 17 16 16 18 21 19 16 19 20 22 25 22 21 21 20 20 21 26 29 25 22 18 15 12 14 9 9 10
12 10 10 14 15 14 12 10 12 14 15 11 12 12 10 13 15 11 15 16 17 15 17 18 23 21 23 23 25 29 28 27 25 25 25 24 28 24 19 16 16 13 14 10 11
12 11 11 12 10 8 10 9 8 16 13 17 19 19 14 15 22 22 22 18 15 17 19 20 20 19 24 21 22 30 25 28 31 29 26 26 22 18 19 15 17 16 15 14 11
Wind_Direction
91 98 113 125 130 137 144 151 163 172 179 190 201 209 212 212 211 213 210 213 212 205 206 247 210 235 323 15 21 42 47 52 59 160 154 128 11 314 334 358 17 4 7 351 334
66 91 145 161 168 177 183 189 186 179 179 184 189 197 206 212 214 215 218 216 209 208 203 217 216 222 47 7 18 34 26 17 355 270 229 267 351 350 356 337 335 349 354 354 15
330 287 243 227 207 202 208 206 199 196 192 186 189 193 195 200 208 216 217 219 210 209 209 207 203 220 109 356 353 354 6 3 360 344 246 260 300 336 343 287 273 320 345 348 56
325 306 278 255 231 216 215 211 208 202 195 192 197 195 194 193 182 214 215 215 211 209 209 215 202 209 191 323 344 0 11 28 358 346 279 249 262 292 293 294 274 313 338 344 118
342 326 304 276 254 228 223 218 212 205 197 199 201 199 199 202 218 217 215 215 213 205 206 213 211 229 248 298 339 342 345 11 4 360 345 273 278 286 302 316 284 321 344 30 140
349 339 323 297 272 247 231 226 217 211 206 200 204 203 201 205 208 209 210 212 211 204 206 210 220 225 249 280 317 331 358 9 3 347 346 349 300 325 299 311 291 306 353 109 127
342 341 331 311 287 265 246 238 231 222 214 210 209 207 208 212 206 198 193 203 200 198 204 215 225 222 245 274 281 305 333 329 349 353 342 347 345 0 302 263 289 206 54 162 159
333 330 326 319 307 291 262 249 241 235 226 219 218 215 217 213 211 206 208 203 202 196 201 212 222 225 230 248 284 294 298 2 332 339 19 10 355 332 357 216 267 225 167 167 183
328 323 320 313 314 310 283 260 245 238 231 225 222 220 223 217 210 203 210 201 199 202 205 213 221 223 238 243 261 269 277 311 331 345 324 339 335 315 311 308 213 222 203 182 181
320 319 318 313 318 318 307 273 252 238 229 225 222 220 228 215 210 202 203 208 206 207 209 215 220 226 231 226 240 258 275 295 314 311 320 312 305 297 284 264 223 212 210 203 186
311 301 302 306 313 321 317 287 262 250 230 216 215 213 221 214 206 208 203 207 208 208 208 215 218 223 226 235 248 254 276 283 299 301 319 323 312 293 268 267 245 225 213 209 199
315 303 288 291 298 302 302 282 246 241 231 226 221 215 222 216 203 210 211 209 211 207 201 221 225 225 231 232 233 252 265 273 295 315 318 314 308 289 267 300 285 252 227 212 204
322 309 299 283 289 290 276 270 242 229 223 233 221 216 212 205 191 217 210 200 205 202 213 220 244 220 230 232 238 247 254 266 282 291 301 303 297 258 293 321 311 279 248 215 212
337 314 304 282 276 267 256 246 219 193 143 238 191 213 213 195 217 218 214 198 203 212 219 232 229 227 234 237 240 250 252 268 281 282 279 311 294 276 255 272 287 294 313 268 220
338 325 311 286 262 247 233 221 193 159 227 198 190 208 204 181 210 217 207 204 212 213 210 229 229 234 233 235 231 250 254 259 267 266 279 278 260 282 252 255 259 271 300 303 240
329 330 318 292 260 243 219 197 178 187 194 172 189 188 187 188 193 212 206 201 211 219 229 224 247 223 239 239 244 255 237 246 255 258 261 264 252 284 349 226 257 257 273 281 284
318 321 319 290 260 236 205 182 196 242 194 183 185 169 174 187 196 190 194 201 199 203 225 234 240 236 228 214 204 208 219 234 223 226 254 265 256 269 275 280 273 268 275 269 289
306 307 306 290 258 229 195 176 236 220 181 191 175 177 184 194 202 198 204 208 208 213 230 217 215 224 232 220 219 226 229 243 242 252 268 189 258 262 287 290 272 264 263 298 293
303 291 287 284 256 221 188 212 256 206 201 188 210 201 207 201 208 208 215 216 216 212 219 212 233 216 214 218 223 230 233 242 265 261 266 270 277 282 302 297 291 242 253 295 312
321 287 271 270 239 208 199 225 236 220 208 199 211 213 217 211 206 205 210 222 215 220 214 234 251 232 213 232 234 227 248 224 235 264 267 271 270 271 292 334 282 258 250 292 327
322 293 275 249 221 203 218 237 239 237 220 210 222 226 223 213 219 220 215 224 207 223 221 227 242 236 219 225 237 223 230 234 258 262 281 280 273 309 262 297 293 269 278 279 308
320 279 266 250 223 222 232 233 237 234 238 233 230 229 223 223 226 224 222 223 212 200 207 215 230 242 240 243 245 242 239 231 233 242 244 268 274 291 282 295 291 278 271 275 297
311 281 261 247 227 254 248 245 239 240 239 236 231 228 228 223 226 220 221 223 213 205 210 205 224 246 249 238 249 233 235 241 247 255 258 262 267 261 289 303 299 291 263 277 280
318 298 275 252 244 234 244 247 241 245 242 239 230 242 239 236 230 228 226 231 227 216 220 218 238 237 261 251 306 222 235 241 247 253 253 252 262 267 277 288 295 290 270 273 262
322 283 262 248 261 246 248 244 236 246 245 244 249 232 232 234 233 235 234 230 230 231 227 224 241 247 254 257 264 262 261 256 257 256 258 265 268 271 266 271 285 296 274 269 241
310 297 279 266 266 262 256 256 241 242 239 242 243 244 245 237 238 243 231 232 232 237 229 238 254 260 257 256 258 260 256 256 255 254 259 258 258 256 260 265 273 284 279 265 229
300 290 288 279 275 265 243 242 242 251 257 240 243 247 249 242 235 237 237 232 231 230 241 243 248 244 255 257 262 259 255 256 252 249 250 252 256 255 253 259 258 260 267 262 237
Height
3165 3165 3165 3165 3165 3164 3164 3164 3165 3166 3166 3167 3167 3168 3170 3172 3175 3176 3179 3181 3182 3184 3185 3186 3187 3187 3187 3188 3187 3186 3188 3187 3187 3187 3188 3187 3188 3187 3187 3186 3185 3184 3182 3180 3177
3165 3165 3165 3164 3164 3164 3164 3164 3164 3165 3166 3166 3167 3167 3169 3170 3173 3175 3177 3178 3181 3183 3185 3186 3186 3188 3189 3189 3188 3187 3188 3188 3186 3187 3188 3187 3187 3187 3187 3186 3185 3184 3182 3180 3177
3165 3165 3164 3164 3164 3164 3164 3164 3164 3164 3165 3166 3166 3167 3168 3170 3172 3173 3174 3177 3180 3182 3184 3186 3187 3189 3189 3189 3189 3188 3188 3187 3187 3186 3185 3187 3187 3187 3188 3188 3187 3185 3182 3179 3177
3164 3164 3164 3163 3163 3164 3163 3163 3164 3164 3164 3165 3165 3166 3168 3169 3174 3170 3172 3175 3178 3181 3184 3186 3187 3189 3190 3192 3189 3189 3187 3187 3186 3185 3185 3186 3186 3187 3187 3187 3185 3184 3182 3179 3178
3164 3163 3163 3162 3162 3162 3162 3163 3163 3163 3164 3164 3164 3165 3167 3169 3169 3169 3170 3173 3176 3180 3183 3185 3187 3189 3191 3190 3190 3189 3188 3187 3186 3186 3185 3185 3185 3186 3185 3184 3184 3183 3182 3180 3180
3163 3162 3162 3161 3161 3161 3161 3161 3162 3162 3163 3163 3164 3165 3166 3168 3168 3168 3169 3172 3175 3179 3183 3185 3187 3188 3189 3190 3190 3189 3188 3188 3187 3186 3185 3185 3184 3184 3185 3183 3183 3183 3182 3182 3182
3162 3161 3161 3160 3160 3159 3160 3160 3160 3161 3162 3162 3163 3163 3165 3167 3166 3167 3169 3171 3173 3177 3182 3184 3185 3188 3189 3190 3189 3189 3190 3188 3187 3187 3185 3184 3184 3184 3184 3183 3183 3183 3183 3183 3184
3160 3160 3159 3158 3158 3157 3158 3158 3158 3159 3160 3161 3161 3162 3162 3163 3165 3166 3168 3169 3172 3175 3178 3180 3183 3186 3188 3188 3189 3190 3190 3189 3188 3186 3186 3185 3186 3183 3183 3183 3183 3183 3183 3183 3184
3158 3158 3157 3156 3156 3155 3155 3155 3155 3156 3157 3158 3160 3160 3161 3161 3163 3164 3166 3168 3170 3173 3175 3179 3182 3185 3186 3189 3190 3188 3187 3188 3188 3186 3185 3185 3185 3181 3181 3182 3183 3183 3183 3183 3183
3156 3155 3155 3154 3154 3153 3153 3152 3152 3153 3154 3155 3157 3161 3159 3159 3160 3162 3165 3167 3169 3171 3175 3178 3181 3184 3186 3187 3185 3185 3187 3187 3187 3187 3184 3185 3184 3183 3180 3181 3181 3182 3183 3183 3183
3154 3153 3153 3152 3152 3151 3151 3150 3152 3152 3151 3152 3152 3153 3154 3156 3159 3160 3163 3165 3168 3171 3174 3176 3181 3180 3183 3185 3185 3186 3186 3185 3186 3185 3182 3183 3181 3180 3179 3178 3179 3180 3181 3182 3183
3151 3150 3150 3150 3149 3149 3148 3148 3148 3149 3149 3148 3149 3151 3152 3153 3156 3158 3162 3166 3166 3169 3173 3176 3174 3179 3181 3182 3183 3184 3184 3184 3184 3182 3182 3180 3177 3177 3177 3177 3176 3177 3179 3179 3181
3149 3147 3146 3146 3147 3147 3146 3146 3145 3145 3146 3146 3146 3148 3150 3154 3157 3156 3160 3163 3165 3169 3170 3173 3174 3176 3176 3179 3180 3181 3181 3181 3183 3182 3180 3179 3175 3175 3175 3174 3174 3174 3175 3176 3178
3147 3144 3143 3143 3146 3144 3144 3144 3144 3144 3147 3147 3146 3146 3149 3151 3155 3155 3158 3164 3165 3168 3170 3171 3172 3172 3174 3175 3178 3177 3179 3179 3179 3180 3177 3177 3174 3172 3173 3173 3172 3171 3171 3171 3173
3145 3142 3141 3140 3141 3142 3143 3142 3143 3145 3142 3147 3144 3144 3145 3151 3153 3153 3156 3160 3164 3166 3168 3169 3168 3169 3170 3172 3174 3175 3177 3177 3177 3176 3176 3174 3174 3168 3168 3169 3170 3170 3168 3168 3169
3142 3140 3139 3138 3138 3139 3139 3141 3143 3147 3140 3143 3142 3142 3143 3147 3151 3151 3154 3158 3162 3163 3163 3164 3164 3165 3167 3169 3171 3173 3173 3174 3174 3174 3170 3166 3168 3163 3164 3167 3167 3168 3168 3166 3164
3140 3139 3137 3137 3137 3137 3138 3140 3146 3141 3141 3142 3143 3141 3144 3147 3150 3150 3152 3154 3157 3160 3160 3161 3161 3162 3164 3166 3167 3169 3171 3168 3168 3165 3161 3161 3165 3162 3162 3163 3163 3164 3164 3164 3161
3137 3136 3135 3135 3135 3136 3137 3141 3142 3138 3140 3139 3141 3142 3145 3147 3149 3149 3151 3152 3154 3156 3156 3157 3155 3158 3160 3161 3164 3165 3167 3162 3157 3155 3154 3158 3159 3158 3158 3158 3158 3158 3159 3159 3158
3133 3133 3133 3133 3133 3134 3137 3140 3137 3137 3136 3138 3140 3142 3143 3144 3146 3147 3148 3149 3151 3153 3156 3154 3155 3154 3155 3158 3161 3161 3162 3163 3159 3156 3158 3154 3154 3155 3154 3153 3152 3154 3155 3155 3154
3130 3130 3130 3130 3131 3133 3136 3136 3134 3132 3133 3135 3138 3138 3139 3140 3142 3144 3145 3145 3147 3150 3152 3153 3153 3153 3154 3155 3156 3156 3159 3159 3158 3154 3151 3148 3148 3150 3152 3151 3151 3152 3152 3152 3150
3128 3128 3127 3128 3129 3131 3133 3134 3130 3129 3131 3134 3135 3136 3136 3137 3138 3139 3140 3142 3143 3146 3147 3150 3152 3151 3152 3151 3150 3152 3153 3154 3152 3149 3145 3145 3144 3144 3148 3149 3149 3149 3149 3148 3147
3126 3127 3124 3125 3129 3127 3130 3128 3127 3128 3128 3130 3130 3132 3133 3134 3134 3136 3137 3139 3137 3141 3143 3144 3146 3145 3145 3145 3145 3146 3146 3147 3146 3147 3147 3148 3144 3145 3146 3146 3145 3145 3145 3144 3143
3123 3122 3122 3123 3126 3126 3124 3125 3124 3125 3126 3127 3128 3128 3129 3131 3133 3132 3134 3133 3135 3137 3140 3140 3141 3140 3139 3142 3140 3140 3142 3143 3143 3142 3140 3140 3139 3141 3142 3142 3142 3141 3141 3141 3140
3120 3120 3118 3118 3118 3120 3121 3122 3123 3121 3121 3122 3123 3124 3126 3127 3128 3129 3131 3130 3131 3133 3134 3135 3137 3136 3131 3130 3135 3137 3138 3138 3139 3136 3136 3135 3136 3139 3139 3139 3139 3137 3137 3138 3137
3117 3115 3115 3117 3115 3115 3116 3116 3118 3120 3118 3119 3120 3121 3123 3124 3125 3125 3127 3127 3127 3128 3130 3132 3132 3132 3132 3132 3132 3133 3134 3135 3135 3135 3134 3132 3131 3133 3135 3136 3136 3135 3135 3135 3134
3113 3112 3111 3110 3109 3110 3111 3113 3113 3116 3115 3118 3117 3118 3118 3120 3121 3122 3122 3123 3124 3124 3125 3127 3127 3128 3126 3128 3128 3126 3127 3128 3129 3130 3129 3130 3128 3131 3132 3132 3133 3133 3132 3132 3132
3108 3107 3106 3105 3105 3107 3109 3107 3107 3106 3108 3109 3109 3111 3114 3115 3112 3114 3115 3116 3118 3119 3121 3122 3122 3122 3120 3122 3121 3117 3121 3121 3121 3122 3124 3123 3125 3127 3127 3128 3129 3129 3128 3128 3129